Content
SEND FEEDBACK

Daily
Averages
Monthly
Summary
United States of America

MERIZO, GUAM


Home > North America > United States > Guam
Elevation: 3 meters     Latitude: 13 14N     Longitude: 144 39E

WEATHER
 
SELECT A DAY
Number of Records: 337,293;   Date Range: 1/1/95 - 4/15/14
 
SHARE

PRINT THIS DATA

[ ← Previous Day ]
WEATHER ALMANAC - 28 MARCH, 2013
[ Next Day → ]
[ °F ]   °C
Weather ElementAverageHighLow
Temperature26.5 °C29.1 °C (1:55 pm)24.5 °C (4:55 am)
Dewpoint22.3 °C23.2 °C (11:55 am)21 °C (2:18 am)
Humidity77.5 %89 % (3:33 am)68 % (10:55 am)
Barometer1011.2 hPa1013.2 hPa (9:39 am)1009.1 hPa (3:54 pm)
Wind Speed26.7 km/h35.2 km/h (11:55 am)
Wind Gust40.7 km/h (12:55 pm)
Weather ElementAverage
Visibility16.1 km
Wind DirectionENE (72.8 °)

Weather ElementTotal
Precipitation---
Cooling Degree Days8.5 (Base 18.3)
Growing Degree Days16.8 (Base 10)
Averaged from 61 records on 28 March, 2013
WEATHER CONDITIONS BREAKOUT
WIND DIRECTION BREAKOUT
WEATHER BY HOUR - 28 MARCH, 2013
[ °F ]   °C
Local TimeTemperatureDewpointHumidityBarometerVisibilityWind DirectionWind SpeedGust SpeedPrecipitationEventsConditions
12:55 AM25 °C21.5 °C81 %1011.5 hPa16.1 kmEast (80°)25.9 km/hClear
1:16 AM25 °C22 °C83 %1011.2 hPa16.1 kmENE (70°)27.8 km/hMostly Cloudy
1:55 AM25.1 °C22 °C83 %1011.2 hPa16.1 kmENE (70°)25.9 km/hMostly Cloudy
2:18 AM25 °C21 °C78 %1010.8 hPa16.1 kmENE (60°)24.1 km/hMostly Cloudy
2:50 AM25 °C22 °C83 %1010.8 hPa16.1 kmENE (60°)22.2 km/hMostly Cloudy
2:53 AM25 °C22 °C83 %1010.5 hPa16.1 kmENE (60°)20.4 km/hScattered Clouds
2:55 AM25 °C22.1 °C84 %1010.5 hPa16.1 kmENE (60°)18.5 km/hScattered Clouds
3:33 AM25 °C23 °C89 %1010.5 hPa16.1 kmENE (70°)16.7 km/hMostly Cloudy
3:55 AM25.1 °C21.7 °C81 %1010.5 hPa16.1 kmENE (60°)25.9 km/hMostly Cloudy
4:08 AM25 °C23 °C89 %1010.8 hPa16.1 kmNE (50°)31.5 km/hMostly Cloudy
4:55 AM24.5 °C21.3 °C82 %1010.8 hPa16.1 kmENE (60°)22.2 km/hPartly Cloudy
5:55 AM25 °C22.3 °C85 %1011.5 hPa16.1 kmENE (60°)20.4 km/hScattered Clouds
6:01 AM25 °C22 °C83 %1011.9 hPa16.1 kmENE (60°)16.7 km/hMostly Cloudy
6:38 AM25 °C22 °C83 %1012.2 hPa16.1 kmENE (60°)29.6 km/hScattered Clouds
6:55 AM25.3 °C22.2 °C83 %1012.2 hPa16.1 kmENE (60°)25.9 km/hScattered Clouds
7:55 AM26.3 °C22.7 °C80 %1012.9 hPa16.1 kmENE (70°)22.2 km/hScattered Clouds
8:12 AM27 °C22 °C74 %1012.9 hPa16.1 kmEast (80°)25.9 km/hMostly Cloudy
8:35 AM27 °C22 °C74 %1012.9 hPa16.1 kmEast (80°)29.6 km/hScattered Clouds
8:55 AM27.3 °C23 °C77 %1012.9 hPa16.1 kmENE (70°)33.3 km/hPartly Cloudy
9:39 AM28 °C23 °C74 %1013.2 hPa16.1 kmENE (70°)25.9 km/hMostly Cloudy
9:46 AM28 °C23 °C74 %1012.9 hPa16.1 kmENE (70°)25.9 km/h37 km/hScattered Clouds
9:55 AM28.1 °C22.4 °C71 %1012.9 hPa16.1 kmENE (70°)27.8 km/hPartly Cloudy
10:55 AM28.4 °C21.9 °C68 %1012.5 hPa16.1 kmENE (70°)25.9 km/hScattered Clouds
11:46 AM28 °C23 °C74 %1011.5 hPa16.1 kmENE (70°)33.3 km/hMostly Cloudy
11:52 AM29 °C23 °C70 %1011.5 hPa16.1 kmENE (70°)31.5 km/hScattered Clouds
11:55 AM28.7 °C23.2 °C72 %1011.5 hPa16.1 kmENE (70°)35.2 km/hScattered Clouds
12:55 PM28.9 °C22.7 °C69 %1010.5 hPa16.1 kmENE (70°)29.6 km/h40.7 km/hMostly Cloudy
1:55 PM29.1 °C22.8 °C69 %1009.8 hPa16.1 kmEast (80°)31.5 km/hClear
2:55 PM28.7 °C23.2 °C72 %1009.5 hPa16.1 kmENE (70°)31.5 km/hScattered Clouds
3:54 PM28 °C23 °C74 %1009.1 hPa16.1 kmEast (80°)29.6 km/hMostly Cloudy
3:55 PM28.2 °C22.9 °C73 %1009.1 hPa16.1 kmEast (80°)29.6 km/hMostly Cloudy
3:57 PM28 °C23 °C74 %1009.1 hPa16.1 kmEast (80°)31.5 km/hScattered Clouds
4:06 PM28 °C22 °C70 %1009.1 hPa16.1 kmENE (70°)33.3 km/hMostly Cloudy
4:15 PM28 °C22 °C70 %1009.1 hPa16.1 kmEast (80°)24.1 km/h37 km/hScattered Clouds
4:25 PM28 °C23 °C74 %1009.1 hPa16.1 kmENE (70°)29.6 km/hMostly Cloudy
4:48 PM27 °C22 °C74 %1009.1 hPa16.1 kmENE (70°)31.5 km/hScattered Clouds
4:53 PM28 °C22 °C70 %1009.1 hPa16.1 kmENE (70°)31.5 km/hMostly Cloudy
4:55 PM27.5 °C22.4 °C74 %1009.1 hPa16.1 kmEast (80°)31.5 km/hMostly Cloudy
4:59 PM27 °C22 °C74 %1009.1 hPa16.1 kmEast (80°)29.6 km/hScattered Clouds
5:25 PM27 °C22 °C74 %1009.5 hPa16.1 kmENE (70°)25.9 km/h38.9 km/hMostly Cloudy
5:55 PM26.5 °C22.4 °C78 %1009.8 hPa16.1 kmENE (70°)25.9 km/hMostly Cloudy
6:17 PM26 °C23 °C83 %1009.8 hPa16.1 kmENE (70°)31.5 km/hScattered Clouds
6:55 PM25.9 °C22.2 °C80 %1010.2 hPa16.1 kmEast (80°)25.9 km/h37 km/hPartly Cloudy
7:41 PM26 °C22 °C78 %1010.5 hPa16.1 kmENE (70°)27.8 km/hMostly Cloudy
7:48 PM26 °C22 °C78 %1010.5 hPa16.1 kmEast (80°)27.8 km/hScattered Clouds
7:55 PM25.9 °C22.1 °C79 %1010.8 hPa16.1 kmEast (80°)24.1 km/hScattered Clouds
7:56 PM26 °C22 °C78 %1010.8 hPa16.1 kmEast (80°)24.1 km/hMostly Cloudy
8:55 PM26 °C22.4 °C80 %1011.2 hPa16.1 kmENE (70°)27.8 km/hMostly Cloudy
9:07 PM26 °C22 °C78 %1011.5 hPa16.1 kmEast (80°)24.1 km/hScattered Clouds
9:55 PM25.8 °C22.6 °C82 %1011.5 hPa16.1 kmEast (90°)22.2 km/h35.2 km/hScattered Clouds
10:55 PM25.7 °C22.5 °C82 %1011.9 hPa16.1 kmEast (80°)20.4 km/hPartly Cloudy
11:03 PM26 °C22 °C78 %1012.2 hPa16.1 kmEast (80°)25.9 km/hMostly Cloudy
11:10 PM26 °C22 °C78 %1012.2 hPa16.1 kmENE (70°)27.8 km/hMostly Cloudy
11:14 PM26 °C22 °C78 %1012.2 hPa16.1 kmENE (70°)27.8 km/hScattered Clouds
11:24 PM26 °C22 °C78 %1012.2 hPa16.1 kmEast (80°)24.1 km/hMostly Cloudy
11:28 PM26 °C22 °C78 %1012.2 hPa16.1 kmEast (90°)27.8 km/h35.2 km/hMostly Cloudy
11:29 PM26 °C22 °C78 %1012.2 hPa16.1 kmEast (90°)27.8 km/h35.2 km/hMostly Cloudy
11:34 PM26 °C22 °C78 %1012.2 hPa16.1 kmENE (70°)27.8 km/h35.2 km/hMostly Cloudy
11:35 PM26 °C22 °C78 %1012.2 hPa16.1 kmEast (80°)24.1 km/h35.2 km/hMostly Cloudy
11:39 PM26 °C22 °C78 %1012.2 hPa16.1 kmEast (90°)24.1 km/h33.3 km/hScattered Clouds
11:55 PM25.7 °C22 °C80 %1012.2 hPa16.1 kmEast (90°)22.2 km/hScattered Clouds
Hourly data recorded from PGUA, located 28.84 kilometers away from Merizo, Guam







STORIES FROM OUR PARTNERS